Regional Weather Roundup
Issued by NWS

Home | Current Version | Previous Version | Text Only | Print | Product List | Glossary Off
Versions: 1 2 3 4 5 6 7 8 9 10 11 12 13 14 15 16 17 18 19 20 21 22 23 24 25 26 27 28 29 30 31 32 33 34 35 36 37 38 39 40 41 42 43 44 45 46 47 48 49 50

000
ASUS45 KTFX 261304
RWRMT
MONTANA HOURLY WEATHER ROUNDUP
NATIONAL WEATHER SERVICE GREAT FALLS MT
704 AM MDT THU MAR 26 2015

NOTE: "FAIR" INDICATES FEW OR NO CLOUDS BELOW 12000 FEET WITH NO
SIGNIFICANT WEATHER AND/OR OBSTRUCTIONS TO VISIBILITY.

* THESE STATIONS ARE NOT UNDER NWS QUALITY CONTROL. THEY DO NOT
   REPORT WEATHER SUCH AS PRECIPITATION OR FOG.

MTZ001>007-043-261400-
WEST OF THE DIVIDE
CITY           SKY/WX    TMP DP  RH WIND       PRES   REMARKS
KALISPELL      LGT RAIN  39  39 100 CALM      30.28S
MISSOULA       CLOUDY    39  37  93 SE3       30.33S
BUTTE          CLOUDY    37  28  70 N5        30.29S WCI  33
MULLAN PASS    LGT RAIN  34  34 100 VRB7      30.29S VSB M1/4 WCI  28
* ESSEX        N/A       36  34  92 N/A        N/A
* LINCOLN      N/A       37  35  92 SW3G10     N/A
* LOOKOUT PASS N/A       40  38  93 S1G7       N/A
* POLSON       N/A       40  39  96 N/A        N/A
* RONAN APT    MOCLDY    43  39  86 N/A        N/A
* SEELEY LAKE  N/A       34  33  96 N/A        N/A
* THOMP F APT  PTCLDY    28  19  69 NE1G6      N/A
* YAAK HILL    N/A       41  38  89 NW1        N/A
$$

MTZ008-052>055-261400-
SOUTHWEST MONTANA
CITY           SKY/WX    TMP DP  RH WIND       PRES   REMARKS
BOZEMAN        CLOUDY    41  36  82 S5        30.26S
DILLON         CLOUDY    41  28  60 SW15      30.30S
* W YELLOWSTON CLEAR     30  24  78 SW2        N/A
* THREE FORKS  MOCLDY    43  37  79 N/A        N/A
* TWIN BRIDGES PTCLDY    43  27  53 E5         N/A
* BOULDER HILL N/A       39  26  60 S7         N/A   WCI  34
* HOMESTAKE PS N/A       36  28  73 W4G16      N/A
* MONIDA PASS  N/A       26  19  75 SE6        N/A   WCI  19
* RAYNOLDS PAS N/A       27   9  46 SE15       N/A   WCI  15
* WHITEHALL    N/A       44  28  53 SW10G16    N/A
* WISE RIVER   N/A       39  29  67 W9G15      N/A   WCI  33
$$

MTZ009>010-012-014-046-048-049-054-261400-
EAST SLOPES AND CENTRAL MONTANA
CITY           SKY/WX    TMP DP  RH WIND       PRES   REMARKS
CUT BANK       CLOUDY    39  30  70 W3        30.08S
GREAT FALLS    CLOUDY    45  32  60 SW16      30.12S
HELENA         CLOUDY    46  34  63 W9        30.24S
* DEARBORN     N/A       48  33  56 S7G12      N/A
* EAST GLACIER N/A       42  31  65 W30G42     N/A
* MONARCH      N/A       40  27  60 SW21G27    N/A   WCI  30
* PENDROY      N/A       45  28  51 NW10G16    N/A
* ROGERS PASS  N/A       35  33  92 SE20G32    N/A   WCI  24
* SWEET GRASS  N/A       40  31  70 W13        N/A   WCI  32
$$

MTZ011-013-016-021-035-040-045-047-050-051-261400-
NORTH CENTRAL MONTANA
CITY           SKY/WX    TMP DP  RH WIND       PRES   REMARKS
HAVRE          PTCLDY    34  28  79 W6        30.09S WCI  29
LEWISTOWN      CLOUDY    43  32  65 N/A       30.13F
* N BAR RANCH  MOCLDY    41  30  65 NW12      30.12R
* MALTA APT    MOCLDY    34  27  76 N/A        N/A
* CHESTER      N/A       33  28  82 S1         N/A
* DENTON       N/A       44  32  63 SW12       N/A
* GEYSER       N/A       44  28  53 W12G24     N/A
* JUDITH GAP   N/A       41  30  65 W16        N/A
* LOMA         N/A       44  33  65 W6         N/A
$$

MTZ017>020-022>027-061-062-261400-
NORTHEAST MONTANA
CITY           SKY/WX    TMP DP  RH WIND       PRES   REMARKS
GLASGOW        CLOUDY    30  28  92 E10       30.10S WCI  21
GLENDIVE       CLOUDY    30  28  92 NE6       30.11S WCI  24
JORDAN         MOCLDY    34  28  79 W7        30.08R WCI  28
SIDNEY         MOCLDY    32  30  92 CALM      30.13R
WOLF POINT     FOG       32  30  92 NE5       30.13R VSB M1/4 WCI  27
* BEAVER HILL  N/A       30  29  96 E4G14      N/A
* CIRCLE       N/A       30  27  89 N/A        N/A
* LINDSAY DVD  N/A       29  29 100 NE8        N/A   WCI  21
* NAVAJO       N/A       28  27  96 S2         N/A
* SACO         N/A       26  24  92 E1         N/A
$$

MTZ028>042-056>058-261400-
SOUTHCENTRAL AND SOUTHEAST MONTANA
CITY           SKY/WX    TMP DP  RH WIND       PRES   REMARKS
BAKER          CLOUDY    28  27  96 NE9       30.07R WCI  19
BILLINGS       MOCLDY    46  30  54 W14       30.16R
LIVINGSTON     CLOUDY    46  28  50 W24       30.19F
MILES CITY     MOCLDY    36  28  73 NW9       30.09R WCI  29
* LAUREL APT   CLOUDY    46  25  44 W8         N/A
* ROUNDUP APT  MOCLDY    43  28  56 S5         N/A
* ALZADA       N/A       42  29  60 W9         N/A
* HYSHAM       N/A       43  24  47 W2         N/A
* LAME DEER    N/A       40  26  57 NW8        N/A   WCI  35
* REED POINT   N/A       48  28  46 W13G19     N/A
* ROSCOE HILL  N/A       47  13  25 SW6G13     N/A
$$

REGIONAL REPORTS...DAKOTAS
CITY           SKY/WX    TMP DP  RH WIND       PRES   REMARKS
WILLISTON      CLOUDY    30  25  82 E3        30.15R
DICKINSON      LGT SNOW  27  25  92 SE7       30.08F VSB 3    WCI  19
CROSBY         MOCLDY    23  23 100 E3        30.17R
WATFORD CITY   MOCLDY    28  27  96 E6        30.13R WCI  21
BISMARCK       CLOUDY    27  25  92 CALM      30.18S
GRAND FORKS    PTCLDY    21  18  88 N8        30.24R WCI  11
FARGO          CLEAR     21  18  88 N9        30.22R WCI  11
BUFFALO SD     MOCLDY    30  25  82 E7        29.98S WCI  23
RAPID CITY     CLOUDY    32  25  75 CALM      30.06F
$$

REGIONAL REPORTS...WYOMING/IDAHO/WASHINGTON
CITY           SKY/WX    TMP DP  RH WIND       PRES   REMARKS
GILLETTE       LGT RAIN  37  34  89 W16       30.14R WCI  28
SHERIDAN       CLOUDY    46  30  54 NW18G25   30.17R
CODY           CLOUDY    45  21  38 W16G24    30.19S
YELLOWSTONE LA MOCLDY    25  21  85 CALM      30.36R
SALMON         CLOUDY    41  34  76 CALM      30.36S
MULLAN PASS    LGT RAIN  34  34 100 VRB7      30.29S VSB M1/4 WCI  28
SAND POINT     N/A       43  43 100 CALM      30.30R
SPOKANE        MOCLDY    45  43  93 S8        30.30R
$$

REGIONAL REPORTS...SASKATCHEWAN
CITY           SKY/WX    TMP DP  RH WIND       PRES   REMARKS
MOOSE JAW      FAIR      25  23  92 SE7       30.15R WCI  17

$$



USA.gov is the U.S. government's official web portal to all federal, state and local government web resources and services.